#timestamp,LO_Frequency,Hit 
1497621615.0,286047065.7,N
1497621615.9,286047065.7,N
1497621635.8,286047066.0,N
1497621655.6,286047065.5,N
1497621675.4,286047065.6,N
1497621695.3,286047067.9,N
1497621715.1,286047068.4,N
1497621735.9,286047066.9,N
1497621755.7,286047067.6,N
1497621775.5,286047067.3,N
1497621795.4,286047067.8,N
1497621815.2,286047068.4,N
1497621835.0,286047068.0,N
1497621836.0,286047068.0,N
1497621855.8,286047066.6,N
1497621875.6,286047063.1,N
1497621895.5,286047066.6,N
1497621915.3,286047067.7,N
1497621935.1,286047067.1,N
1497621955.9,286047067.4,N
1497621975.7,286047066.0,N
1497621995.6,286047065.9,N
1497622015.4,286047065.5,N
1497622035.2,286047066.0,N
1497622055.1,286047066.3,N
1497622056.0,286047066.3,N
1497622075.8,286047065.5,N
1497622095.6,286047068.2,N
1497622115.5,286047065.6,N
1497622135.3,286047065.7,N
1497622155.1,286047065.5,N
1497622175.9,286047066.2,N
1497622195.7,286047066.3,N
1497622215.6,286047063.9,N
1497622235.4,286047066.8,N
1497622255.2,286047063.9,N
1497622275.1,286047064.1,N
1497622276.0,286047064.1,N
1497622295.8,286047065.6,N
1497622315.6,286047066.1,N
1497622335.5,286047067.7,N
1497622355.3,286047065.3,N
1497622375.2,286047068.0,N
1497622395.9,286047065.7,N
1497622415.7,286047068.1,N
1497622435.6,286047067.5,N
1497622455.4,286047067.3,N
1497622475.2,286047197.1,N
1497622495.1,286047069.7,N
1497622496.0,286047069.7,N
1497622515.8,286047069.0,N
1497622535.7,286047069.4,N
1497622555.5,286047067.0,N
1497622575.3,286047069.6,N
1497622595.2,286047069.4,N
1497622615.0,286047066.9,N
1497622615.9,286047066.9,N
1497622665.8,286047068.1,Y
1497622675.7,286047039.4,N
1497622695.5,286047000.6,N
1497622715.4,286047000.2,N
1497622735.2,286047002.8,N
1497622755.0,286046998.2,N
1497622756.0,286046998.2,N
1497622775.8,286047001.1,N
1497622795.6,286047000.8,N
1497622815.5,286047002.4,N
1497622835.3,286047000.9,N
1497622855.1,286047000.8,N
1497622875.9,286047000.4,N
1497622895.7,286047000.9,N
1497622915.5,286047000.1,N
1497622935.4,286047000.8,N
1497622955.2,286047001.0,N
1497622975.1,286047000.9,N
1497622976.0,286047000.9,N
1497622995.8,286047002.2,N
1497623015.6,286047002.7,N
1497623035.5,286047000.1,N
1497623055.3,286047002.8,N
1497623075.2,286047000.8,N
1497623095.9,286046999.9,N
1497623115.7,286047001.0,N
1497623135.6,286046999.7,N
1497623155.4,286047000.3,N
1497623175.2,286046998.4,N
1497623195.1,286047000.9,N
1497623196.0,286047000.9,N
1497623215.8,286047000.4,N
1497623235.7,286046998.6,N
1497623255.5,286047000.6,N
1497623275.3,286047002.5,N
1497623295.2,286047001.3,N
1497623315.0,286047003.8,N
1497623315.9,286047003.8,N
1497623335.7,286047004.1,N
1497623355.6,286047003.7,N
1497623375.4,286047004.4,N
1497623395.3,286047001.4,N
1497623415.1,286047001.4,N
1497623416.0,286047001.4,N
1497623435.8,286047003.8,N
1497623455.7,286047002.2,N
1497623475.5,286047002.0,N
1497623495.3,286047000.0,N
1497623515.2,286047000.3,N
1497623535.0,286046999.9,N
1497623535.9,286046999.9,N
1497623555.8,286047001.1,N
1497623575.6,286047000.9,N
1497623595.4,286046998.4,N
1497623615.3,286047000.6,N
1497623635.1,286047000.4,N
1497623655.8,286047000.6,N
1497623675.7,286047001.1,N
1497623695.5,286047002.0,N
1497623715.4,286047002.0,N
1497623735.2,286046999.8,N
1497623755.0,286047000.4,N
1497623755.9,286047000.4,N
1497623775.8,286047000.9,N
1497623795.6,286047000.0,N
1497623815.4,286047002.3,N
1497623835.3,286047000.1,N
1497623855.1,286047002.0,N
1497623875.9,286047002.0,N
1497623895.7,286047002.4,N
1497623915.5,286047002.0,N
1497623935.4,286047002.1,N
1497623955.2,286047002.0,N
1497623975.1,286047002.6,N
1497623976.0,286047002.6,N
1497623995.8,286047002.0,N
1497624015.6,286047002.0,N
1497624035.5,286046999.7,N
1497624055.3,286047001.8,N
1497624075.1,286047002.1,N
1497624095.9,286047002.4,N
1497624115.7,286046999.7,N
1497624135.6,286047002.0,N
1497624155.4,286047002.5,N
1497624175.2,286047000.2,N
1497624195.1,286046999.7,N
1497624196.0,286046999.7,N
1497624215.8,286047002.0,N
1497624235.6,286047000.1,N
1497624255.5,286047001.4,N
1497624275.3,286047001.5,N
1497624295.2,286047001.8,N
1497624315.9,286047003.9,N
1497624335.7,286047002.2,N
1497624355.6,286047002.2,N
1497624375.4,286047002.2,N
1497624395.2,286047002.4,N
1497624415.1,286047001.4,N
1497624416.0,286047001.4,N
1497624435.8,286047001.3,N
1497624455.7,286047003.5,N
1497624475.5,286047003.5,N
1497624495.3,286047003.9,N
1497624515.2,286047001.5,N
1497624535.0,286047001.7,N
1497624535.9,286047001.7,N
1497624555.7,286047001.9,N
1497624575.6,286047002.0,N
1497624595.4,286047001.6,N
1497624615.3,286047004.0,N
1497624635.1,286047001.4,N
1497624636.0,286047001.4,N
1497624655.8,286047001.6,N
1497624675.7,286047001.3,N
1497624695.5,286047001.3,N
1497624715.3,286047003.7,N
1497624735.2,286047001.4,N
1497624755.0,286047004.0,N
1497624755.9,286047004.0,N
1497624775.8,286047002.5,N
1497624795.6,286047003.5,N
1497624815.4,286047001.6,N
1497624835.3,286047003.6,N
1497624855.1,286047003.5,N
1497624875.8,286047003.9,N
1497624895.7,286047003.6,N
1497624915.5,286047003.2,N
1497624935.4,286047001.7,N
1497624955.2,286047001.5,N
1497624975.0,286047001.6,N
1497624975.9,286047001.6,N
1497624995.8,286047001.7,N
1497625015.6,286047001.9,N
1497625035.4,286047004.2,N
1497625055.3,286047004.3,N
1497625075.1,286047003.8,N
1497625095.9,286047004.3,N
1497625115.7,286047003.5,N
1497625135.5,286047001.7,N
1497625155.4,286047001.9,N
1497625175.2,286047002.3,N
1497625195.0,286047002.7,N
1497625195.9,286047002.7,N
